[ ตารางข้อมูล ] [ Min-Max ] [ วันนี้4 ] [ วันนี้2 ] [ เทียบ3วัน A ] [ เทียบ4วัน B ]   

วันนี้2   [ ◀ ช่วงเก่ากว่า ] [ ช่วงที่ 198 ] [ ช่วงใหม่กว่า ▶ ] [ ล่าสุด ]    [ 3 ชั่วโมง ] [ 6 ชั่วโมง ] [ 12 ชั่วโมง ] [ 24 ชั่วโมง ]   วันนี้2

อุณภูมิตู้ Knockdown4529  ราย 6 ชั่วโมง  ที่วัดได้ ในช่วงวันเวลา 15/03/2026 (21:56) ถึง 16/03/2026 (03:56) 
ความชื้นในตู้ Knockdown4529  ราย 6 ชั่วโมง  ที่วัดได้ ในช่วงวันเวลา 15/03/2026 (21:56) ถึง 16/03/2026 (03:56) 

 
DS18B20SHTC3 
IDDate d/m/Y & Timedata1
สูง
data2
ต่ำ
data3
นอก
temp
pcb
hum
pcb
Time
 2892  16/03/2026 03:53:32  27.3  27.4  25.9  27.2  72.5  03:53 
 2891  16/03/2026 03:48:50  27.4  27.4  26.0  27.3  72.4  03:48 
 2890  16/03/2026 03:44:09  27.4  27.4  26.0  27.3  72.4  03:44 
 2889  16/03/2026 03:39:27  27.4  27.4  25.9  27.4  72.4  03:39 
 2888  16/03/2026 03:34:46  27.4  27.4  25.9  27.4  72.4  03:34 
 2887  16/03/2026 03:30:04  27.4  27.4  26.1  27.4  72.4  03:30 
 2886  16/03/2026 03:25:23  27.4  27.5  26.2  27.2  72.4  03:25 
 2885  16/03/2026 03:20:42  27.5  27.5  26.2  27.4  72.5  03:20 
 2884  16/03/2026 03:15:59  27.5  27.5  26.2  27.3  72.4  03:15 
 2883  16/03/2026 03:11:18  27.5  27.6  26.2  27.5  72.3  03:11 
 2882  16/03/2026 03:06:36  27.5  27.6  26.2  27.4  72.4  03:06 
 2881  16/03/2026 03:01:55  27.6  27.6  26.3  27.4  72.3  03:01 
 2880  16/03/2026 02:57:13  27.6  27.6  26.3  27.5  72.4  02:57 
 2879  16/03/2026 02:52:32  27.6  27.6  26.3  27.4  72.2  02:52 
 2878  16/03/2026 02:47:50  27.6  27.6  26.2  27.4  72.3  02:47 
 2877  16/03/2026 02:43:09  27.6  27.6  26.4  27.5  72.4  02:43 
 2876  16/03/2026 02:38:27  27.6  27.6  26.5  27.5  72.4  02:38 
 2875  16/03/2026 02:33:45  27.6  27.6  26.6  27.5  72.3  02:33 
 2874  16/03/2026 02:29:02  27.6  27.7  26.7  27.8  72.4  02:29 
 2873  16/03/2026 02:24:21  27.6  27.7  26.7  27.5  72.4  02:24 
 2872  16/03/2026 02:19:39  27.6  27.7  26.8  27.7  72.5  02:19 
 2871  16/03/2026 02:14:58  27.7  27.7  26.9  27.7  72.5  02:14 
 2870  16/03/2026 02:10:15  27.7  27.8  26.9  27.5  72.3  02:10 
 2869  16/03/2026 02:05:31  27.7  27.8  26.9  27.6  72.4  02:05 

Data every 5 minute.


ใช้เวลาประมวลผล 0.05250 วินาที